Flag for Australia Weather past 2 weeks in Melbourne, Victoria, Australia

Now
68 °F

Partly sunny.


Feels Like: 68 °F
Forecast: 60 / 94 °F
Wind: 8 mph from Southwest

Location: Melbourne Airport

Current Time: Feb 27, 2015 at 11:31:14 AM

Latest Report: Feb 27, 2015 at 11:00 AM


Visibility: N/A

Pressure: 29.89 "Hg

Humidity: 60%

Dew point: 54 °F

Location of MelbourneLocation

Historic Weather in Melbourne — Graph

°F

Melbourne temperature yesterday

Maximum temperature yesterday: 75 °F (at 1:30 PM)
Minimum temperature yesterday: 61 °F (at 4:00 AM)
Average temperature yesterday: 66 °F

Past Weeks' High & Low Weather Summary

 TemperatureHumidityPressure
High99 °F (Feb 21, 2:00 PM)100% (Feb 13, 8:00 PM)30.27 "Hg (Feb 13, 8:00 PM)
Low57 °F (Feb 13, 3:30 AM)18% (Feb 21, 4:00 PM)29.80 "Hg (Feb 25, 7:00 PM)
Average70 °F66%30.00 "Hg
* Reported Feb 12 10:00 AM — Feb 27 10:00 AM, Melbourne, Weather by CustomWeather, © 2015

Note: Actual official high and low records may vary slightly from our data, if they occured in-between our weather recording intervals... More about our weather records

Advertising

Melbourne weather history for previous 24 hours

 ConditionsComfort  
Time TempWeatherWind HumidityBarometerVisibility
10:00 AM
Fri, Feb 27
66 °FScattered clouds.7 mph68%29.86 "HgN/A
9:30 AM63 °FScattered clouds.5 mph83%29.86 "HgN/A
9:00 AM63 °FPassing clouds.7 mph83%29.86 "HgN/A
8:30 AM63 °FPassing clouds.3 mph83%29.86 "HgN/A
8:00 AM61 °FScattered clouds.2 mph88%29.86 "HgN/A
7:00 AM57 °FPassing clouds.6 mph94%29.83 "HgN/A
6:30 AM57 °FPassing clouds.6 mph94%29.83 "HgN/A
6:00 AM57 °FPassing clouds.6 mph94%29.83 "HgN/A
5:30 AM57 °FPassing clouds.8 mph94%29.83 "HgN/A
5:00 AM57 °FPassing clouds.No wind94%29.83 "HgN/A
4:00 AM61 °FPassing clouds.5 mph83%29.83 "HgN/A
3:30 AM63 °FPassing clouds.3 mph83%29.86 "HgN/A
3:00 AM63 °FPassing clouds.5 mph83%29.86 "HgN/A
2:00 AM63 °FPassing clouds.7 mph77%29.86 "HgN/A
1:00 AM64 °FPassing clouds.8 mph78%29.86 "HgN/A
12:30 AM64 °FPassing clouds.6 mph78%29.89 "HgN/A
12:00 AM64 °FPassing clouds.6 mph78%29.89 "HgN/A
11:30 PM
Thu, Feb 26
63 °FPartly cloudy.7 mph83%29.89 "HgN/A
11:00 PM64 °FPartly cloudy.9 mph78%29.89 "HgN/A
10:30 PM64 °FPartly cloudy.7 mph78%29.89 "HgN/A
10:00 PM64 °FPassing clouds.9 mph78%29.89 "HgN/A
9:30 PM64 °FPassing clouds.10 mph78%29.89 "HgN/A
9:00 PM64 °FPassing clouds.12 mph78%29.86 "HgN/A
8:30 PM66 °FPassing clouds.10 mph73%29.86 "HgN/A
8:00 PM66 °FScattered clouds.10 mph68%29.83 "HgN/A
7:30 PM68 °FScattered clouds.13 mph69%29.83 "HgN/A
7:00 PM70 °FPassing clouds.14 mph64%29.80 "HgN/A
6:30 PM70 °FPassing clouds.13 mph64%29.80 "HgN/A
6:00 PM72 °FPassing clouds.15 mph61%29.80 "HgN/A
5:00 PM73 °FPassing clouds.13 mph57%29.80 "HgN/A
4:30 PM73 °FPassing clouds.14 mph53%29.80 "HgN/A
4:00 PM75 °FPassing clouds.14 mph54%29.80 "HgN/A
3:30 PM73 °FScattered clouds.15 mph57%29.83 "HgN/A
2:00 PM75 °FScattered clouds.12 mph54%29.83 "HgN/A
1:30 PM75 °FPartly sunny.13 mph54%29.83 "HgN/A
1:00 PM73 °FScattered clouds.12 mph53%29.86 "HgN/A
12:00 PM72 °FBroken clouds.9 mph61%29.86 "HgN/A
11:30 AM72 °FScattered clouds.9 mph61%29.86 "HgN/A
11:00 AM70 °FScattered clouds.6 mph64%29.86 "HgN/A
Weather by CustomWeather, © 2015

See weather overviewHow to use our weather pages